"Sample Date","Sample Time","Sample Value","Units","Flow Rate","Sample Interval","Number Channels","Micron Size 0","Counts/Channel 0","Micron Size 1","Counts/Channel 1","Micron Size 2","Counts/Channel 2","Micron Size 3","Counts/Channel 3","Micron Size 4","Counts/Channel 4","Micron Size 5","Counts/Channel 5","Micron Size 6","Counts/Channel 6","Micron Size 7","Counts/Channel 7","Micron Size 8","Counts/Channel 8","Micron Size 9","Counts/Channel 9","Micron Size 10","Counts/Channel 10","Micron Size 11","Counts/Channel 11","Micron Size 12","Counts/Channel 12","Micron Size 13","Counts/Channel 13","Micron Size 14","Counts/Channel 14","Micron Size 15","Counts/Channel 15","Micron Size 16","Counts/Channel 16","Micron Size 17","Counts/Channel 17","Micron Size 18","Counts/Channel 18","Micron Size 19","Counts/Channel 19","Micron Size 20","Counts/Channel 20","Micron Size 21","Counts/Channel 21","Micron Size 22","Counts/Channel 22","Micron Size 23","Counts/Channel 23","Micron Size 24","Counts/Channel 24","Micron Size 25","Counts/Channel 25","Micron Size 26","Counts/Channel 26","Micron Size 27","Counts/Channel 27","Micron Size 28","Counts/Channel 28","Micron Size 29","Counts/Channel 29","Micron Size 30","Counts/Channel 30","Micron Size 31","Counts/Channel 31"
"03/05/08","16:00:05",40998.000,"cc",28325.367,6.00,6,0.100,33790.000,0.200,4116.000,0.300,1262.000,0.500,1345.000,1.000,485.000,5.000,0
"03/05/08","16:00:11",40669.000,"cc",28297.191,6.00,6,0.100,33572.000,0.200,4194.000,0.300,1175.000,0.500,1238.000,1.000,490.000,5.000,0
"03/05/08","16:00:17",40324.000,"cc",28250.043,6.00,6,0.100,33255.000,0.200,4057.000,0.300,1234.000,0.500,1307.000,1.000,471.000,5.000,0
"03/05/08","16:00:23",40948.000,"cc",28263.492,6.00,6,0.100,33800.000,0.200,4094.000,0.300,1196.000,0.500,1380.000,1.000,478.000,5.000,0
"03/05/08","16:00:29",40656.000,"cc",28370.971,6.00,6,0.100,33442.000,0.200,4116.000,0.300,1238.000,0.500,1372.000,1.000,488.000,5.000,0
"03/05/08","16:00:35",40881.000,"cc",28365.057,6.00,6,0.100,33507.000,0.200,4148.000,0.300,1338.000,0.500,1366.000,1.000,522.000,5.000,0
"03/05/08","16:00:41",40822.000,"cc",28328.182,6.00,6,0.100,33658.000,0.200,4041.000,0.300,1255.000,0.500,1354.000,1.000,514.000,5.000,0
"03/05/08","16:00:47",41231.000,"cc",28325.131,6.00,6,0.100,33994.000,0.200,4070.000,0.300,1269.000,0.500,1392.000,1.000,506.000,5.000,0
"03/05/08","16:00:53",40707.000,"cc",28297.606,6.00,6,0.100,33728.000,0.200,3952.000,0.300,1268.000,0.500,1270.000,1.000,489.000,5.000,0
"03/05/08","16:00:59",40788.000,"cc",28337.031,6.00,6,0.100,33499.000,0.200,4258.000,0.300,1202.000,0.500,1358.000,1.000,471.000,5.000,0
"03/05/08","16:01:05",41194.000,"cc",28287.133,6.00,6,0.100,33946.000,0.200,4157.000,0.300,1229.000,0.500,1370.000,1.000,492.000,5.000,0
"03/05/08","16:01:11",41979.000,"cc",28324.242,6.00,6,0.100,34938.000,0.200,3933.000,0.300,1238.000,0.500,1350.000,1.000,520.000,5.000,0
"03/05/08","16:01:17",41080.000,"cc",28384.297,6.00,6,0.100,33950.000,0.200,4239.000,0.300,1170.000,0.500,1271.000,1.000,450.000,5.000,0
"03/05/08","16:01:23",41105.000,"cc",28273.578,6.00,6,0.100,33946.000,0.200,4165.000,0.300,1214.000,0.500,1308.000,1.000,472.000,5.000,0
"03/05/08","16:01:29",40323.000,"cc",28294.565,6.00,6,0.100,33254.000,0.200,4284.000,0.300,1173.000,0.500,1151.000,1.000,461.000,5.000,0
"03/05/08","16:01:35",40842.000,"cc",28361.922,6.00,6,0.100,33725.000,0.200,4307.000,0.300,1133.000,0.500,1230.000,1.000,447.000,5.000,0
"03/05/08","16:01:41",40625.000,"cc",28331.904,6.00,6,0.100,33635.000,0.200,4264.000,0.300,1139.000,0.500,1140.000,1.000,447.000,5.000,0
"03/05/08","16:01:47",40981.000,"cc",28310.514,6.00,6,0.100,33961.000,0.200,4145.000,0.300,1226.000,0.500,1236.000,1.000,413.000,5.000,0
"03/05/08","16:01:53",41042.000,"cc",28191.463,6.00,6,0.100,34129.000,0.200,4111.000,0.300,1133.000,0.500,1213.000,1.000,456.000,5.000,0
"03/05/08","16:01:59",41369.000,"cc",28299.395,6.00,6,0.100,34426.000,0.200,4149.000,0.300,1097.000,0.500,1251.000,1.000,446.000,5.000,0
"03/05/08","16:02:05",41566.000,"cc",28303.805,6.00,6,0.100,34317.000,0.200,4224.000,0.300,1187.000,0.500,1380.000,1.000,458.000,5.000,0
"03/05/08","16:02:11",41130.000,"cc",28448.172,6.00,6,0.100,34013.000,0.200,4230.000,0.300,1195.000,0.500,1250.000,1.000,442.000,5.000,0
"03/05/08","16:02:17",40748.000,"cc",28320.918,6.00,6,0.100,33685.000,0.200,4134.000,0.300,1215.000,0.500,1264.000,1.000,450.000,5.000,0
"03/05/08","16:02:23",41031.000,"cc",28310.277,6.00,6,0.100,33927.000,0.200,4231.000,0.300,1193.000,0.500,1259.000,1.000,421.000,5.000,0
"03/05/08","16:02:29",41111.000,"cc",28334.041,6.00,6,0.100,33995.000,0.200,4099.000,0.300,1241.000,0.500,1316.000,1.000,460.000,5.000,0
"03/05/08","16:02:35",40563.000,"cc",28365.107,6.00,6,0.100,33588.000,0.200,4095.000,0.300,1184.000,0.500,1253.000,1.000,443.000,5.000,0
"03/05/08","16:02:41",40484.000,"cc",28280.740,6.00,6,0.100,33570.000,0.200,3981.000,0.300,1148.000,0.500,1301.000,1.000,484.000,5.000,0
"03/05/08","16:02:47",40838.000,"cc",28320.121,6.00,6,0.100,33666.000,0.200,4203.000,0.300,1211.000,0.500,1255.000,1.000,503.000,5.000,0
"03/05/08","16:02:53",41050.000,"cc",28293.408,6.00,6,0.100,33993.000,0.200,4097.000,0.300,1236.000,0.500,1255.000,1.000,469.000,5.000,0
"03/05/08","16:02:59",41045.000,"cc",28276.383,6.00,6,0.100,33833.000,0.200,4086.000,0.300,1229.000,0.500,1407.000,1.000,490.000,5.000,0
"03/05/08","16:03:05",41379.000,"cc",28238.607,6.00,6,0.100,34305.000,0.200,3965.000,0.300,1287.000,0.500,1350.000,1.000,472.000,5.000,0
"03/05/08","16:03:11",40607.000,"cc",28415.990,6.00,6,0.100,33679.000,0.200,3877.000,0.300,1242.000,0.500,1349.000,1.000,460.000,5.000,0
"03/05/08","16:03:17",41103.000,"cc",28342.891,6.00,6,0.100,34063.000,0.200,4031.000,0.300,1250.000,0.500,1285.000,1.000,474.000,5.000,0
"03/05/08","16:03:23",40979.000,"cc",28365.840,6.00,6,0.100,33846.000,0.200,4080.000,0.300,1223.000,0.500,1328.000,1.000,502.000,5.000,0
"03/05/08","16:03:29",40509.000,"cc",28307.859,6.00,6,0.100,33566.000,0.200,3983.000,0.300,1238.000,0.500,1238.000,1.000,484.000,5.000,0
"03/05/08","16:03:35",40353.000,"cc",28380.543,6.00,6,0.100,33202.000,0.200,4046.000,0.300,1270.000,0.500,1357.000,1.000,478.000,5.000,0
"03/05/08","16:03:41",40425.000,"cc",28253.260,6.00,6,0.100,33190.000,0.200,4090.000,0.300,1299.000,0.500,1372.000,1.000,474.000,5.000,0
"03/05/08","16:03:47",39867.000,"cc",28328.193,6.00,6,0.100,32725.000,0.200,4037.000,0.300,1242.000,0.500,1376.000,1.000,487.000,5.000,0
"03/05/08","16:03:53",40029.000,"cc",28320.865,6.00,6,0.100,32962.000,0.200,4030.000,0.300,1254.000,0.500,1306.000,1.000,477.000,5.000,0
"03/05/08","16:03:59",40491.000,"cc",28270.186,6.00,6,0.100,33280.000,0.200,4147.000,0.300,1235.000,0.500,1377.000,1.000,452.000,5.000,0
"03/05/08","16:04:05",40805.000,"cc",28330.244,6.00,6,0.100,33615.000,0.200,4257.000,0.300,1225.000,0.500,1254.000,1.000,454.000,5.000,0
"03/05/08","16:04:11",40665.000,"cc",28369.721,6.00,6,0.100,33568.000,0.200,4205.000,0.300,1165.000,0.500,1283.000,1.000,444.000,5.000,0
"03/05/08","16:04:17",40281.000,"cc",28228.748,6.00,6,0.100,33073.000,0.200,4325.000,0.300,1182.000,0.500,1274.000,1.000,427.000,5.000,0
"03/05/08","16:04:23",40270.000,"cc",28294.900,6.00,6,0.100,33114.000,0.200,4304.000,0.300,1162.000,0.500,1224.000,1.000,466.000,5.000,0
"03/05/08","16:04:29",39935.000,"cc",28402.035,6.00,6,0.100,32847.000,0.200,4245.000,0.300,1176.000,0.500,1215.000,1.000,452.000,5.000,0
"03/05/08","16:04:35",39751.000,"cc",28272.719,6.00,6,0.100,32931.000,0.200,4125.000,0.300,1080.000,0.500,1201.000,1.000,414.000,5.000,0
"03/05/08","16:04:41",40480.000,"cc",28283.268,6.00,6,0.100,33494.000,0.200,4231.000,0.300,1069.000,0.500,1248.000,1.000,438.000,5.000,0
"03/05/08","16:04:47",40253.000,"cc",28346.879,6.00,6,0.100,33180.000,0.200,4198.000,0.300,1183.000,0.500,1224.000,1.000,468.000,5.000,0
"03/05/08","16:04:53",40083.000,"cc",28308.525,6.00,6,0.100,32869.000,0.200,4341.000,0.300,1208.000,0.500,1245.000,1.000,420.000,5.000,0
"03/05/08","16:04:59",40383.000,"cc",28283.377,6.00,6,0.100,33308.000,0.200,4212.000,0.300,1225.000,0.500,1209.000,1.000,429.000,5.000,0
"03/05/08","16:05:05",40688.000,"cc",28256.973,6.00,6,0.100,33567.000,0.200,4240.000,0.300,1164.000,0.500,1268.000,1.000,449.000,5.000,0
"03/05/08","16:05:11",41110.000,"cc",28345.533,6.00,6,0.100,33831.000,0.200,4252.000,0.300,1242.000,0.500,1312.000,1.000,473.000,5.000,0
"03/05/08","16:05:17",39825.000,"cc",28265.291,6.00,6,0.100,32560.000,0.200,4280.000,0.300,1206.000,0.500,1311.000,1.000,468.000,5.000,0
"03/05/08","16:05:23",40585.000,"cc",28353.262,6.00,6,0.100,33512.000,0.200,4153.000,0.300,1228.000,0.500,1226.000,1.000,466.000,5.000,0
"03/05/08","16:05:29",40008.000,"cc",28356.908,6.00,6,0.100,33053.000,0.200,4067.000,0.300,1149.000,0.500,1266.000,1.000,473.000,5.000,0
"03/05/08","16:05:35",39793.000,"cc",28258.793,6.00,6,0.100,32649.000,0.200,4043.000,0.300,1301.000,0.500,1300.000,1.000,500.000,5.000,0
"03/05/08","16:05:41",40098.000,"cc",28363.246,6.00,6,0.100,32953.000,0.200,4165.000,0.300,1247.000,0.500,1275.000,1.000,458.000,5.000,0
"03/05/08","16:05:47",39906.000,"cc",28315.525,6.00,6,0.100,32889.000,0.200,4070.000,0.300,1155.000,0.500,1323.000,1.000,469.000,5.000,0
"03/05/08","16:05:53",39837.000,"cc",28361.102,6.00,6,0.100,32765.000,0.200,4096.000,0.300,1231.000,0.500,1289.000,1.000,456.000,5.000,0
"03/05/08","16:05:59",40698.000,"cc",28204.324,6.00,6,0.100,33623.000,0.200,4074.000,0.300,1261.000,0.500,1265.000,1.000,475.000,5.000,0
"03/05/08","16:06:05",40745.000,"cc",28272.381,6.00,6,0.100,33574.000,0.200,4128.000,0.300,1240.000,0.500,1315.000,1.000,488.000,5.000,0
"03/05/08","16:06:11",40070.000,"cc",28274.500,6.00,6,0.100,32925.000,0.200,4082.000,0.300,1263.000,0.500,1314.000,1.000,486.000,5.000,0
"03/05/08","16:06:17",39507.000,"cc",28361.150,6.00,6,0.100,32480.000,0.200,4075.000,0.300,1223.000,0.500,1263.000,1.000,465.000,5.000,1.000
"03/05/08","16:06:23",40006.000,"cc",28369.574,6.00,6,0.100,33038.000,0.200,3876.000,0.300,1263.000,0.500,1313.000,1.000,516.000,5.000,0
"03/05/08","16:06:29",40549.000,"cc",28279.711,6.00,6,0.100,33384.000,0.200,4156.000,0.300,1170.000,0.500,1350.000,1.000,489.000,5.000,0
"03/05/08","16:06:35",40443.000,"cc",28301.002,6.00,6,0.100,33355.000,0.200,4062.000,0.300,1241.000,0.500,1323.000,1.000,462.000,5.000,0
"03/05/08","16:06:41",40478.000,"cc",28271.607,6.00,6,0.100,33416.000,0.200,3962.000,0.300,1303.000,0.500,1290.000,1.000,507.000,5.000,0
"03/05/08","16:06:47",39632.000,"cc",28286.504,6.00,6,0.100,32547.000,0.200,4049.000,0.300,1242.000,0.500,1319.000,1.000,475.000,5.000,0
"03/05/08","16:06:53",41022.000,"cc",28357.660,6.00,6,0.100,33838.000,0.200,4069.000,0.300,1283.000,0.500,1342.000,1.000,490.000,5.000,0
"03/05/08","16:06:59",40265.000,"cc",28376.811,6.00,6,0.100,33278.000,0.200,4003.000,0.300,1213.000,0.500,1302.000,1.000,469.000,5.000,0
"03/05/08","16:07:05",40088.000,"cc",28259.402,6.00,6,0.100,32874.000,0.200,4124.000,0.300,1253.000,0.500,1341.000,1.000,496.000,5.000,0
"03/05/08","16:07:11",39794.000,"cc",28273.690,6.00,6,0.100,32677.000,0.200,4005.000,0.300,1284.000,0.500,1335.000,1.000,493.000,5.000,0
"03/05/08","16:07:17",40024.000,"cc",28438.424,6.00,6,0.100,32846.000,0.200,4050.000,0.300,1320.000,0.500,1335.000,1.000,473.000,5.000,0
"03/05/08","16:07:23",39675.000,"cc",28319.566,6.00,6,0.100,32474.000,0.200,4035.000,0.300,1346.000,0.500,1332.000,1.000,488.000,5.000,0
"03/05/08","16:07:29",39912.000,"cc",28373.418,6.00,6,0.100,32721.000,0.200,4119.000,0.300,1234.000,0.500,1362.000,1.000,476.000,5.000,0
"03/05/08","16:07:35",39525.000,"cc",28287.301,6.00,6,0.100,32484.000,0.200,4122.000,0.300,1211.000,0.500,1252.000,1.000,456.000,5.000,0
"03/05/08","16:07:41",41113.000,"cc",28244.186,6.00,6,0.100,33954.000,0.200,4147.000,0.300,1248.000,0.500,1280.000,1.000,484.000,5.000,0
"03/05/08","16:07:47",40157.000,"cc",28209.174,6.00,6,0.100,33086.000,0.200,4103.000,0.300,1158.000,0.500,1300.000,1.000,510.000,5.000,0
"03/05/08","16:07:53",39930.000,"cc",28333.471,6.00,6,0.100,32728.000,0.200,4078.000,0.300,1244.000,0.500,1356.000,1.000,524.000,5.000,0
"03/05/08","16:07:59",39897.000,"cc",28426.231,6.00,6,0.100,32923.000,0.200,3978.000,0.300,1247.000,0.500,1249.000,1.000,500.000,5.000,0
"03/05/08","16:08:05",39647.000,"cc",28271.246,6.00,6,0.100,32559.000,0.200,4006.000,0.300,1267.000,0.500,1316.000,1.000,499.000,5.000,0
"03/05/08","16:08:11",40852.000,"cc",28253.627,6.00,6,0.100,33787.000,0.200,4045.000,0.300,1256.000,0.500,1301.000,1.000,463.000,5.000,0
"03/05/08","16:08:17",39501.000,"cc",28351.578,6.00,6,0.100,32409.000,0.200,4064.000,0.300,1214.000,0.500,1324.000,1.000,490.000,5.000,0
"03/05/08","16:08:23",39188.000,"cc",28264.766,6.00,6,0.100,32058.000,0.200,4059.000,0.300,1282.000,0.500,1276.000,1.000,513.000,5.000,0
"03/05/08","16:08:29",39464.000,"cc",28232.713,6.00,6,0.100,32498.000,0.200,3969.000,0.300,1206.000,0.500,1288.000,1.000,503.000,5.000,0
"03/05/08","16:08:35",39513.000,"cc",28331.699,6.00,6,0.100,32459.000,0.200,4071.000,0.300,1229.000,0.500,1290.000,1.000,464.000,5.000,0
"03/05/08","16:08:41",39985.000,"cc",28320.828,6.00,6,0.100,32870.000,0.200,4026.000,0.300,1280.000,0.500,1364.000,1.000,445.000,5.000,0
"03/05/08","16:08:47",39931.000,"cc",28232.543,6.00,6,0.100,32847.000,0.200,4067.000,0.300,1203.000,0.500,1352.000,1.000,462.000,5.000,0
"03/05/08","16:08:53",39442.000,"cc",28392.996,6.00,6,0.100,32402.000,0.200,4090.000,0.300,1205.000,0.500,1280.000,1.000,465.000,5.000,0
"03/05/08","16:08:59",41065.000,"cc",28305.840,6.00,6,0.100,33980.000,0.200,4030.000,0.300,1284.000,0.500,1319.000,1.000,452.000,5.000,0
"03/05/08","16:09:05",40410.000,"cc",28337.984,6.00,6,0.100,33259.000,0.200,4071.000,0.300,1244.000,0.500,1330.000,1.000,506.000,5.000,0
"03/05/08","16:09:11",40023.000,"cc",28367.520,6.00,6,0.100,32852.000,0.200,4002.000,0.300,1280.000,0.500,1404.000,1.000,485.000,5.000,0
"03/05/08","16:09:17",39691.000,"cc",28315.990,6.00,6,0.100,32601.000,0.200,4053.000,0.300,1237.000,0.500,1350.000,1.000,450.000,5.000,0
"03/05/08","16:09:23",40121.000,"cc",28335.063,6.00,6,0.100,33151.000,0.200,3954.000,0.300,1246.000,0.500,1293.000,1.000,477.000,5.000,0
"03/05/08","16:09:29",40123.000,"cc",28329.645,6.00,6,0.100,32911.000,0.200,4090.000,0.300,1235.000,0.500,1427.000,1.000,460.000,5.000,0
"03/05/08","16:09:35",40176.000,"cc",28318.424,6.00,6,0.100,32918.000,0.200,4049.000,0.300,1286.000,0.500,1396.000,1.000,527.000,5.000,0
"03/05/08","16:09:41",39364.000,"cc",28310.658,6.00,6,0.100,32175.000,0.200,4109.000,0.300,1287.000,0.500,1305.000,1.000,488.000,5.000,0
"03/05/08","16:09:47",40269.000,"cc",28224.236,6.00,6,0.100,33105.000,0.200,4057.000,0.300,1239.000,0.500,1346.000,1.000,522.000,5.000,0
"03/05/08","16:09:53",40319.000,"cc",28336.238,6.00,6,0.100,33042.000,0.200,4070.000,0.300,1308.000,0.500,1396.000,1.000,503.000,5.000,0
"03/05/08","16:09:59",39688.000,"cc",28255.272,6.00,6,0.100,32662.000,0.200,3946.000,0.300,1253.000,0.500,1333.000,1.000,494.000,5.000,0
"03/05/08","16:10:05",39539.000,"cc",28378.979,6.00,6,0.100,32331.000,0.200,4106.000,0.300,1237.000,0.500,1372.000,1.000,493.000,5.000,0
"03/05/08","16:10:11",39490.000,"cc",28294.910,6.00,6,0.100,32490.000,0.200,4040.000,0.300,1223.000,0.500,1246.000,1.000,491.000,5.000,0
"03/05/08","16:10:17",38583.000,"cc",28328.865,6.00,6,0.100,31531.000,0.200,4024.000,0.300,1217.000,0.500,1344.000,1.000,467.000,5.000,0
"03/05/08","16:10:23",39701.000,"cc",28332.582,6.00,6,0.100,32521.000,0.200,4123.000,0.300,1199.000,0.500,1352.000,1.000,506.000,5.000,0
"03/05/08","16:10:29",38869.000,"cc",28256.949,6.00,6,0.100,31863.000,0.200,4028.000,0.300,1179.000,0.500,1309.000,1.000,490.000,5.000,0
"03/05/08","16:10:35",39135.000,"cc",28392.695,6.00,6,0.100,32102.000,0.200,4003.000,0.300,1241.000,0.500,1304.000,1.000,485.000,5.000,0
"03/05/08","16:10:41",39081.000,"cc",28369.389,6.00,6,0.100,31987.000,0.200,4046.000,0.300,1242.000,0.500,1309.000,1.000,497.000,5.000,0
"03/05/08","16:10:47",39149.000,"cc",28265.859,6.00,6,0.100,32082.000,0.200,4075.000,0.300,1195.000,0.500,1289.000,1.000,508.000,5.000,0
"03/05/08","16:10:53",39152.000,"cc",28281.100,6.00,6,0.100,32268.000,0.200,3965.000,0.300,1204.000,0.500,1277.000,1.000,438.000,5.000,0
"03/05/08","16:10:59",38526.000,"cc",28321.010,6.00,6,0.100,31576.000,0.200,4076.000,0.300,1156.000,0.500,1279.000,1.000,439.000,5.000,0
"03/05/08","16:11:05",38471.000,"cc",28222.113,6.00,6,0.100,31462.000,0.200,4079.000,0.300,1165.000,0.500,1296.000,1.000,469.000,5.000,0
"03/05/08","16:11:11",38792.000,"cc",28444.752,6.00,6,0.100,31816.000,0.200,3994.000,0.300,1200.000,0.500,1320.000,1.000,462.000,5.000,0
"03/05/08","16:11:17",38823.000,"cc",28347.074,6.00,6,0.100,31805.000,0.200,3943.000,0.300,1271.000,0.500,1326.000,1.000,478.000,5.000,0
"03/05/08","16:11:23",38708.000,"cc",28249.871,6.00,6,0.100,31729.000,0.200,4013.000,0.300,1255.000,0.500,1281.000,1.000,430.000,5.000,0
"03/05/08","16:11:29",38392.000,"cc",28264.656,6.00,6,0.100,31520.000,0.200,4092.000,0.300,1117.000,0.500,1218.000,1.000,445.000,5.000,0
"03/05/08","16:11:35",37554.000,"cc",28357.447,6.00,6,0.100,30694.000,0.200,4059.000,0.300,1136.000,0.500,1235.000,1.000,430.000,5.000,0
"03/05/08","16:11:41",38269.000,"cc",28373.471,6.00,6,0.100,31375.000,0.200,4203.000,0.300,1121.000,0.500,1154.000,1.000,416.000,5.000,0
"03/05/08","16:11:47",38570.000,"cc",28304.117,6.00,6,0.100,31711.000,0.200,4085.000,0.300,1171.000,0.500,1177.000,1.000,426.000,5.000,0
"03/05/08","16:11:53",37747.000,"cc",28274.158,6.00,6,0.100,30944.000,0.200,4075.000,0.300,1108.000,0.500,1186.000,1.000,434.000,5.000,0
"03/05/08","16:11:59",37996.000,"cc",28326.377,6.00,6,0.100,31330.000,0.200,4058.000,0.300,1036.000,0.500,1148.000,1.000,424.000,5.000,0
"03/05/08","16:12:05",37895.000,"cc",28329.129,6.00,6,0.100,31022.000,0.200,4170.000,0.300,1076.000,0.500,1156.000,1.000,471.000,5.000,0
"03/05/08","16:12:11",37824.000,"cc",28402.469,6.00,6,0.100,30847.000,0.200,4070.000,0.300,1220.000,0.500,1224.000,1.000,463.000,5.000,0
"03/05/08","16:12:17",38342.000,"cc",28249.139,6.00,6,0.100,31617.000,0.200,4046.000,0.300,1095.000,0.500,1155.000,1.000,429.000,5.000,0
"03/05/08","16:12:23",38099.000,"cc",28265.693,6.00,6,0.100,31180.000,0.200,4115.000,0.300,1117.000,0.500,1235.000,1.000,452.000,5.000,0
"03/05/08","16:12:29",38059.000,"cc",28255.459,6.00,6,0.100,31348.000,0.200,4040.000,0.300,1125.000,0.500,1130.000,1.000,416.000,5.000,0
"03/05/08","16:12:35",37902.000,"cc",28267.303,6.00,6,0.100,31071.000,0.200,4194.000,0.300,1103.000,0.500,1133.000,1.000,401.000,5.000,0
"03/05/08","16:12:41",37818.000,"cc",28370.619,6.00,6,0.100,30997.000,0.200,4177.000,0.300,1117.000,0.500,1105.000,1.000,422.000,5.000,0
"03/05/08","16:12:47",38211.000,"cc",28379.961,6.00,6,0.100,31352.000,0.200,4077.000,0.300,1136.000,0.500,1211.000,1.000,435.000,5.000,0
"03/05/08","16:12:53",38455.000,"cc",28353.895,6.00,6,0.100,31460.000,0.200,4108.000,0.300,1115.000,0.500,1303.000,1.000,469.000,5.000,0
"03/05/08","16:12:59",38386.000,"cc",28301.781,6.00,6,0.100,31392.000,0.200,4149.000,0.300,1201.000,0.500,1221.000,1.000,423.000,5.000,0
"03/05/08","16:13:05",38028.000,"cc",28310.830,6.00,6,0.100,31138.000,0.200,4062.000,0.300,1136.000,0.500,1237.000,1.000,455.000,5.000,0
"03/05/08","16:13:11",37356.000,"cc",28306.387,6.00,6,0.100,30557.000,0.200,4006.000,0.300,1131.000,0.500,1210.000,1.000,452.000,5.000,0
"03/05/08","16:13:17",38025.000,"cc",28285.397,6.00,6,0.100,30976.000,0.200,4118.000,0.300,1186.000,0.500,1278.000,1.000,467.000,5.000,0
"03/05/08","16:13:23",37998.000,"cc",28302.330,6.00,6,0.100,30966.000,0.200,4126.000,0.300,1166.000,0.500,1275.000,1.000,465.000,5.000,0
"03/05/08","16:13:29",38450.000,"cc",28299.949,6.00,6,0.100,31456.000,0.200,4087.000,0.300,1185.000,0.500,1298.000,1.000,424.000,5.000,0
"03/05/08","16:13:35",37610.000,"cc",28348.871,6.00,6,0.100,30768.000,0.200,4072.000,0.300,1119.000,0.500,1229.000,1.000,422.000,5.000,0
"03/05/08","16:13:41",38169.000,"cc",28373.648,6.00,6,0.100,31327.000,0.200,4101.000,0.300,1170.000,0.500,1184.000,1.000,387.000,5.000,0
"03/05/08","16:13:47",38287.000,"cc",28300.072,6.00,6,0.100,31437.000,0.200,4031.000,0.300,1156.000,0.500,1244.000,1.000,419.000,5.000,0
"03/05/08","16:13:53",37778.000,"cc",28327.947,6.00,6,0.100,30722.000,0.200,4179.000,0.300,1201.000,0.500,1225.000,1.000,451.000,5.000,0
"03/05/08","16:13:59",38141.000,"cc",28323.490,6.00,6,0.100,31104.000,0.200,4185.000,0.300,1165.000,0.500,1260.000,1.000,427.000,5.000,0
"03/05/08","16:14:05",38584.000,"cc",28334.381,6.00,6,0.100,31417.000,0.200,4157.000,0.300,1238.000,0.500,1280.000,1.000,492.000,5.000,0
"03/05/08","16:14:11",37801.000,"cc",28275.963,6.00,6,0.100,30943.000,0.200,3969.000,0.300,1203.000,0.500,1258.000,1.000,428.000,5.000,0
"03/05/08","16:14:17",37792.000,"cc",28315.623,6.00,6,0.100,30723.000,0.200,4136.000,0.300,1220.000,0.500,1261.000,1.000,452.000,5.000,0
"03/05/08","16:14:23",37678.000,"cc",28334.607,6.00,6,0.100,30872.000,0.200,4062.000,0.300,1106.000,0.500,1200.000,1.000,438.000,5.000,0
"03/05/08","16:14:29",37682.000,"cc",28297.566,6.00,6,0.100,30768.000,0.200,3941.000,0.300,1215.000,0.500,1289.000,1.000,469.000,5.000,0
"03/05/08","16:14:35",38014.000,"cc",28355.904,6.00,6,0.100,31137.000,0.200,3986.000,0.300,1166.000,0.500,1281.000,1.000,444.000,5.000,0
"03/05/08","16:14:41",38033.000,"cc",28290.424,6.00,6,0.100,31153.000,0.200,4118.000,0.300,1112.000,0.500,1190.000,1.000,460.000,5.000,0
"03/05/08","16:14:47",37768.000,"cc",28263.223,6.00,6,0.100,30735.000,0.200,4195.000,0.300,1153.000,0.500,1253.000,1.000,432.000,5.000,0
"03/05/08","16:14:53",38102.000,"cc",28360.117,6.00,6,0.100,31130.000,0.200,4085.000,0.300,1145.000,0.500,1291.000,1.000,451.000,5.000,0
"03/05/08","16:14:59",37998.000,"cc",28324.867,6.00,6,0.100,30951.000,0.200,4138.000,0.300,1191.000,0.500,1306.000,1.000,412.000,5.000,0
"03/05/08","16:15:05",38527.000,"cc",28342.486,6.00,6,0.100,31522.000,0.200,4108.000,0.300,1169.000,0.500,1251.000,1.000,477.000,5.000,0
"03/05/08","16:15:11",37435.000,"cc",28270.504,6.00,6,0.100,30496.000,0.200,4140.000,0.300,1178.000,0.500,1178.000,1.000,443.000,5.000,0
"03/05/08","16:15:17",37229.000,"cc",28331.803,6.00,6,0.100,30284.000,0.200,4105.000,0.300,1146.000,0.500,1243.000,1.000,451.000,5.000,0
"03/05/08","16:15:23",38009.000,"cc",28309.969,6.00,6,0.100,30856.000,0.200,4150.000,0.300,1253.000,0.500,1287.000,1.000,463.000,5.000,0
"03/05/08","16:15:29",37807.000,"cc",28316.148,6.00,6,0.100,30915.000,0.200,3973.000,0.300,1205.000,0.500,1284.000,1.000,430.000,5.000,0
"03/05/08","16:15:35",38780.000,"cc",28242.777,6.00,6,0.100,31801.000,0.200,4116.000,0.300,1148.000,0.500,1277.000,1.000,438.000,5.000,0
"03/05/08","16:15:41",38203.000,"cc",28318.633,6.00,6,0.100,31152.000,0.200,4110.000,0.300,1257.000,0.500,1258.000,1.000,426.000,5.000,0
"03/05/08","16:15:47",37682.000,"cc",28337.660,6.00,6,0.100,30673.000,0.200,4153.000,0.300,1160.000,0.500,1252.000,1.000,444.000,5.000,0
"03/05/08","16:15:53",38154.000,"cc",28316.129,6.00,6,0.100,31050.000,0.200,4189.000,0.300,1173.000,0.500,1299.000,1.000,443.000,5.000,0
"03/05/08","16:15:59",37842.000,"cc",28311.205,6.00,6,0.100,30814.000,0.200,4085.000,0.300,1168.000,0.500,1287.000,1.000,488.000,5.000,0
"03/05/08","16:16:05",37103.000,"cc",28387.559,6.00,6,0.100,30220.000,0.200,4034.000,0.300,1136.000,0.500,1259.000,1.000,454.000,5.000,0
"03/05/08","16:16:11",37259.000,"cc",28298.574,6.00,6,0.100,30182.000,0.200,4204.000,0.300,1197.000,0.500,1255.000,1.000,421.000,5.000,0
"03/05/08","16:16:17",37075.000,"cc",28322.992,6.00,6,0.100,30307.000,0.200,4073.000,0.300,1109.000,0.500,1175.000,1.000,411.000,5.000,0
"03/05/08","16:16:23",37121.000,"cc",28320.563,6.00,6,0.100,30180.000,0.200,4132.000,0.300,1158.000,0.500,1213.000,1.000,438.000,5.000,0